Location: Newark
(51.8900°N, 2.0780°W)
Time: 22:45:00
(UTC+00:00)

Envisat - Pass Details

Date: 23 November 2019
Orbit: 764 x 766 km, 98.1° (Epoch: 07 December)

Event Time Altitude Azimuth Distance (km) Brightness Sun altitude
Rises 19:50:07 0° 226° (SW) 3,225 6.7 -33.6°
Reaches altitude 10° 19:54:26 10° 261° (W) 2,306 6.2 -34.3°
Maximum altitude 19:55:49 11° 277° (W) 2,238 6.2 -34.5°
Drops below altitude 10° 19:57:12 10° 293° (WNW) 2,311 6.2 -34.7°
Sets 20:01:34 0° 329° (NNW) 3,245 6.8 -35.3°
